TIANLIAN 2-02

Last updated on Mon Jun 22 2026 00:03:07 GMT+0000 (Coordinated Universal Time)

1 50005U 21124A 26172.50531091 -.00000016 00000+0 00000+0 0 9998 2 50005 0.8139 86.0584 0001333 195.7565 340.7521 1.00271355 16667
UTC large
Height (km)
Speed (km/s)
/
Latitude / Longitude
Inclination (degrees)
Orbital Period (minutes)
Azimuth
Elevation
Range (km)
Doppler Factor

Next 0 passes for location: London (51.5072 / 0.1276)

No passes found over London.
TIANLIAN 2-02